(70) Panopaea
ephemeris date magn radius delta ra dec elong phase
Opposition16 May 202610.82.361 AU1.351 AU15h29m-21°46'177.2°1.2°
Today11 Jun 202611.42.316 AU1.382 AU15h03m-22°34'149.7°12.8°
(70) Panopaea - 2026-06-11
astro.vanbuitenen.nl


 
-1 year
-1 month
-1 day
Now
+1 day
+1 month
+1 year

The interactive orbit chart above shows the body's path through the solar system and its position at the given date. Green and blue lines are shown perpendicular to the ecliptic plane: Green if the path is above the ecliptic plane, blue if it is below. (Left-click and drag to rotate the view; Right-click and drag to move the view; Use scroll wheel to zoom in our out.)

The orbital elements of Panopaea are:

            e (Eccentricity)                : 0.1831105
            a (Semimajor axis)              : 2.6139718
            i (Inclination)                 : 11.59605
            Ω (Longitude of ascending node) : 47.63840
            ω (Argument of perihelion)      : 255.40133
            M (Mean anomaly)                : 316.26477
            Epoch                           : 2026 Jun 09

            L (Longitude of perihelion)     : 122.74893
            B (Latitude of perihelion)      : -11.21673
            P (Orbital period in years)     : 4.23            
        

The light curve chart below shows the estimated development of the minor planet's magnitude.


The all-sky chart below shows the path of the minor planet over the same period as the light curve. The current position is marked yellow.





The following chart shows the path of the minor planet in the next few days. The field of view is optimized for (~10x50) binoculars and finderscopes.




Ephemerides:
Date       Time       RA (2000)    DEC (2000)    delta   radius  elong  phase   PA    magn
2026-06-11 00:00 UT   15 03 47.7   -22 34 08     1.382    2.316  149.7   12.8    97   11.4 
2026-06-11 19:23 UT   15 03 11.6   -22 35 32     1.385    2.314  148.8   13.1    98   11.5 
2026-06-12 00:00 UT   15 03 03.2   -22 35 52     1.386    2.314  148.6   13.2    98   11.5 
2026-06-13 00:00 UT   15 02 20.3   -22 37 38     1.391    2.312  147.5   13.6    98   11.5 
2026-06-14 00:00 UT   15 01 39.2   -22 39 25     1.395    2.311  146.4   14.1    98   11.5 
2026-06-15 00:00 UT   15 00 59.9   -22 41 14     1.400    2.309  145.3   14.5    99   11.5 
2026-06-16 00:00 UT   15 00 22.5   -22 43 05     1.405    2.307  144.3   14.9    99   11.5 
2026-06-17 00:00 UT   14 59 46.9   -22 44 58     1.410    2.306  143.2   15.3    99   11.6 
2026-06-18 00:00 UT   14 59 13.2   -22 46 54     1.416    2.304  142.1   15.7    99   11.6 
2026-06-19 00:00 UT   14 58 41.4   -22 48 51     1.422    2.302  141.1   16.1   100   11.6 
2026-06-20 00:00 UT   14 58 11.7   -22 50 52     1.427    2.301  140.0   16.5   100   11.6 
2026-06-21 00:00 UT   14 57 43.8   -22 52 56     1.433    2.299  139.0   16.9   100   11.6 
2026-06-22 00:00 UT   14 57 18.0   -22 55 02     1.440    2.297  137.9   17.2   100   11.7 
2026-06-23 00:00 UT   14 56 54.2   -22 57 12     1.446    2.296  136.9   17.6   100   11.7 
2026-06-24 00:00 UT   14 56 32.4   -22 59 24     1.452    2.294  135.9   18.0   101   11.7 
2026-06-25 00:00 UT   14 56 12.6   -23 01 41     1.459    2.292  134.9   18.3   101   11.7 
2026-06-26 00:00 UT   14 55 54.8   -23 04 00     1.466    2.291  133.9   18.7   101   11.7 
2026-06-27 00:00 UT   14 55 39.1   -23 06 24     1.473    2.289  132.9   19.0   101   11.8 
2026-06-28 00:00 UT   14 55 25.4   -23 08 50     1.480    2.287  131.9   19.3   101   11.8 
2026-06-29 00:00 UT   14 55 13.7   -23 11 21     1.487    2.286  130.9   19.6   101   11.8 
2026-06-30 00:00 UT   14 55 04.1   -23 13 56     1.494    2.284  129.9   19.9   102   11.8 
2026-07-01 00:00 UT   14 54 56.5   -23 16 34     1.502    2.283  129.0   20.3   102   11.8 
2026-07-02 00:00 UT   14 54 51.0   -23 19 16     1.509    2.281  128.0   20.6   102   11.9 
2026-07-03 00:00 UT   14 54 47.4   -23 22 02     1.517    2.279  127.1   20.8   102   11.9 
2026-07-04 00:00 UT   14 54 45.9   -23 24 53     1.525    2.278  126.1   21.1   102   11.9 
2026-07-05 00:00 UT   14 54 46.4   -23 27 47     1.533    2.276  125.2   21.4   102   11.9 
2026-07-06 00:00 UT   14 54 48.9   -23 30 46     1.541    2.275  124.3   21.7   102   11.9 
2026-07-07 00:00 UT   14 54 53.4   -23 33 49     1.549    2.273  123.4   21.9   102   12.0 
2026-07-08 00:00 UT   14 54 59.9   -23 36 56     1.558    2.271  122.5   22.2   103   12.0 
2026-07-09 00:00 UT   14 55 08.4   -23 40 07     1.566    2.270  121.6   22.4   103   12.0 
2026-07-10 00:00 UT   14 55 18.9   -23 43 23     1.574    2.268  120.7   22.7   103   12.0 
2026-07-11 00:00 UT   14 55 31.3   -23 46 42     1.583    2.267  119.8   22.9   103   12.0 


    Terminology:
            
    delta:  distance between minor planet and earth in AU
    radius: distance between minor planet and sun in AU
    magn:   magnitude (brightness) estimate    
    ra:     right ascension in hours (24h = 360deg)
    dec:    declination in degrees
    elong:  elongation in degrees (angle sun-earth-minor planet)    
    phase:  phase angle in degrees (angle sun-minor planet-earth)        
    AU:     Astronomical Unit (mean distance between earth and sun: 149597870.7 km
    

Orbital elements provided by the MPC (Minor Planet Center).
Calculations by a modified version of AAPlus, a C# implementation of the AA+ project by PJ Naughter from the algorithms presented in the book "Astronomical Algorithms" by Jean Meeus.
NGC2000 dso catalog and star labels from VizieR as provided by the Strasbourg astronomical Data Center.
Tycho2 catalog from the ESO archive.